Regional Weather Roundup
Issued by NWS Tiyan, Guam

Home | Current Version | Previous Version | Text Only | Print | Product List | Glossary On
Versions: 1 2 3 4 5 6 7 8 9 10 11 12 13 14 15 16 17 18 19 20 21 22 23 24 25 26 27 28 29 30 31 32 33 34 35 36 37 38 39 40 41 42 43 44 45 46 47 48 49 50
190
ASGM40 PGUM 180912
RWRGUM
WEATHER ROUNDUP FOR THE MARIANAS
NATIONAL WEATHER SERVICE TIYAN GU
700 PM CHST MON DEC 18 2017

GUZ001>004-181000-
MARIANA ISLANDS-

CITY           SKY/WX    TMP DP  RH WIND       PRES   REMARKS
GUAM AIRPORT   PTCLDY    81  79  94 E17       29.85R
ANDERSEN AFB   MOCLDY    81  77  89 E20       29.86R
ROTA AIRPORT   MOCLDY    79  75  89 E18G24    29.87R
TINIAN AP      MOCLDY    81  75  83 NE21      29.86R
SAIPAN AP      PTCLDY    82  75  78 E21G29    29.87R

$$





USA.gov is the U.S. government's official web portal to all federal, state and local government web resources and services.